TimeMDT,TemperatureF,Dew PointF,Humidity,Sea Level PressureIn,VisibilityMPH,Wind Direction,Wind SpeedMPH,Gust SpeedMPH,PrecipitationIn,Events,Conditions,WindDirDegrees,DateUTC
12:52 AM,66.0,54.0,65,29.92,10.0,South,8.1,-,N/A,,Clear,180,2013-07-20 06:52:00
1:52 AM,66.9,55.0,66,29.91,10.0,Calm,Calm,-,N/A,,Clear,0,2013-07-20 07:52:00
2:52 AM,62.1,55.0,78,29.90,10.0,Calm,Calm,-,N/A,,Clear,0,2013-07-20 08:52:00
3:52 AM,59.0,55.0,87,29.91,10.0,Calm,Calm,-,N/A,,Clear,0,2013-07-20 09:52:00
4:52 AM,57.9,54.0,87,29.89,10.0,East,6.9,-,N/A,,Clear,80,2013-07-20 10:52:00
5:52 AM,57.9,55.0,90,29.88,10.0,Calm,Calm,-,N/A,,Clear,0,2013-07-20 11:52:00
6:52 AM,61.0,57.0,87,29.93,10.0,NW,5.8,-,N/A,,Clear,310,2013-07-20 12:52:00
7:52 AM,62.1,57.0,84,29.98,10.0,Calm,Calm,-,N/A,,Partly Cloudy,0,2013-07-20 13:52:00
8:52 AM,64.0,59.0,84,29.88,10.0,SE,12.7,-,0.01,Rain,Light Rain,130,2013-07-20 14:52:00
9:52 AM,69.1,61.0,75,29.87,10.0,SSW,6.9,-,0.00,,Clear,210,2013-07-20 15:52:00
10:52 AM,79.0,57.9,48,29.84,10.0,ENE,3.5,-,N/A,,Clear,60,2013-07-20 16:52:00
11:52 AM,84.9,59.0,41,29.84,10.0,NW,8.1,-,N/A,,Clear,310,2013-07-20 17:52:00
12:52 PM,86.0,59.0,40,29.83,10.0,Variable,3.5,-,N/A,,Clear,0,2013-07-20 18:52:00
1:52 PM,88.0,57.0,35,29.81,10.0,WNW,8.1,-,N/A,,Clear,300,2013-07-20 19:52:00
2:52 PM,89.1,57.0,34,29.81,10.0,Variable,3.5,-,N/A,,Clear,0,2013-07-20 20:52:00
3:52 PM,89.1,53.1,29,29.81,10.0,NNE,5.8,-,N/A,,Clear,20,2013-07-20 21:52:00
4:52 PM,75.9,57.9,54,29.83,10.0,NE,17.3,31.1,0.00,Rain,Light Rain,50,2013-07-20 22:52:00
5:52 PM,81.0,55.0,41,29.79,10.0,East,12.7,20.7,0.00,,Clear,90,2013-07-20 23:52:00
6:52 PM,78.1,53.1,42,29.81,10.0,South,12.7,20.7,N/A,,Clear,170,2013-07-21 00:52:00
7:52 PM,75.0,55.0,50,29.81,10.0,NW,4.6,-,N/A,,Clear,320,2013-07-21 01:52:00
8:52 PM,71.1,57.0,61,29.83,10.0,East,4.6,-,N/A,,Partly Cloudy,80,2013-07-21 02:52:00
9:52 PM,66.9,59.0,76,29.87,10.0,East,6.9,-,N/A,,Partly Cloudy,80,2013-07-21 03:52:00
10:52 PM,64.9,57.9,78,29.83,10.0,NE,4.6,-,N/A,,Clear,50,2013-07-21 04:52:00
11:52 PM,63.0,59.0,87,29.83,10.0,ENE,5.8,-,N/A,,Clear,60,2013-07-21 05:52:00